When you browse on this site, cookies collect data to enhance your experience and personalize the content and advertising you see.
Visit our Privacy Policy to learn more. By continuing to use the site, you agree to this use of cookies and data.
  • en Suisse
  • Liste des pays
  • À 7 jours
  • Température de l'eau
  • Carte météo
  • Widgets météo
  • user-avatar
    Se connecter

    Météo par heure à Volklingen

    Ce jour, 31 Mai, Dimanche

    Heure Température Précipitation Vent Pression Humidité
    00:00 +10°C° 0 mm 3 m/s 743 mmHg 73%
    01:00 +9°C° 0 mm 3 m/s 743 mmHg 75%
    02:00 +9°C° 0 mm 3 m/s 743 mmHg 77%
    03:00 +8°C° 0 mm 3 m/s 743 mmHg 80%
    04:00 +9°C° 0 mm 3 m/s 743 mmHg 77%
    05:00 +10°C° 0 mm 4 m/s 743 mmHg 74%
    06:00 +11°C° 0 mm 4 m/s 743 mmHg 71%
    07:00 +13°C° 0 mm 4 m/s 743 mmHg 66%
    08:00 +14°C° 0 mm 4 m/s 743 mmHg 61%
    09:00 +16°C° 0 mm 5 m/s 743 mmHg 56%
    10:00 +17°C° 0 mm 5 m/s 743 mmHg 54%
    11:00 +17°C° 0 mm 5 m/s 743 mmHg 53%
    12:00 +19°C° 0 mm 5 m/s 743 mmHg 51%
    13:00 +19°C° 0 mm 4 m/s 743 mmHg 51%
    14:00 +19°C° 0 mm 4 m/s 743 mmHg 51%
    15:00 +20°C° 0 mm 4 m/s 743 mmHg 51%
    16:00 +19°C° 0 mm 4 m/s 743 mmHg 56%
    17:00 +18°C° 0 mm 4 m/s 743 mmHg 61%
    18:00 +17°C° 0 mm 3 m/s 742 mmHg 66%
    19:00 +16°C° 0 mm 3 m/s 743 mmHg 68%
    20:00 +13°C° 0 mm 3 m/s 743 mmHg 70%
    21:00 +12°C° 0 mm 3 m/s 743 mmHg 72%
    22:00 +12°C° 0 mm 3 m/s 743 mmHg 72%
    23:00 +11°C° 0 mm 3 m/s 743 mmHg 73%

    Demain, 1 Juin, Lundi

    Heure Température Précipitation Vent Pression Humidité
    00:00 +11°C° 0 mm 4 m/s 743 mmHg 73%
    01:00 +10°C° 0 mm 4 m/s 743 mmHg 74%
    02:00 +10°C° 0 mm 3 m/s 743 mmHg 75%
    03:00 +9°C° 0 mm 3 m/s 743 mmHg 76%
    04:00 +11°C° 0 mm 4 m/s 743 mmHg 75%
    05:00 +12°C° 0 mm 5 m/s 743 mmHg 73%
    06:00 +13°C° 0 mm 5 m/s 743 mmHg 72%
    07:00 +15°C° 0 mm 5 m/s 743 mmHg 68%
    08:00 +16°C° 0 mm 5 m/s 743 mmHg 64%
    09:00 +19°C° 0 mm 6 m/s 743 mmHg 60%
    10:00 +20°C° 0 mm 5 m/s 743 mmHg 57%
    11:00 +21°C° 0 mm 5 m/s 743 mmHg 54%
    12:00 +22°C° 0 mm 5 m/s 743 mmHg 51%
    13:00 +23°C° 0 mm 5 m/s 743 mmHg 51%
    14:00 +23°C° 0 mm 5 m/s 742 mmHg 51%
    15:00 +23°C° 0 mm 5 m/s 742 mmHg 51%
    16:00 +22°C° 0 mm 4 m/s 742 mmHg 56%
    17:00 +21°C° 0 mm 4 m/s 742 mmHg 61%
    18:00 +20°C° 0 mm 3 m/s 741 mmHg 66%
    19:00 +19°C° 0 mm 3 m/s 742 mmHg 69%
    20:00 +17°C° 0 mm 3 m/s 742 mmHg 72%
    21:00 +16°C° 0 mm 3 m/s 742 mmHg 76%
    22:00 +14°C° 0 mm 3 m/s 742 mmHg 78%
    23:00 +13°C° 0 mm 3 m/s 742 mmHg 81%

    Après-demain, 2 Juin, Mardi

    Heure Température Précipitation Vent Pression Humidité
    00:00 +13°C° 0 mm 3 m/s 742 mmHg 83%
    01:00 +12°C° 0 mm 3 m/s 742 mmHg 86%
    02:00 +12°C° 0 mm 3 m/s 741 mmHg 88%
    03:00 +11°C° 0 mm 3 m/s 741 mmHg 90%
    04:00 +12°C° 0 mm 3 m/s 741 mmHg 86%
    05:00 +13°C° 0 mm 3 m/s 741 mmHg 81%
    06:00 +14°C° 0 mm 4 m/s 741 mmHg 76%
    07:00 +17°C° 0 mm 4 m/s 741 mmHg 70%
    08:00 +19°C° 0 mm 4 m/s 741 mmHg 64%
    09:00 +21°C° 0 mm 5 m/s 741 mmHg 57%
    10:00 +22°C° 0 mm 4 m/s 741 mmHg 55%
    11:00 +23°C° 0 mm 4 m/s 740 mmHg 52%
    12:00 +23°C° 0 mm 4 m/s 740 mmHg 50%
    13:00 +25°C° 0 mm 4 m/s 739 mmHg 50%
    14:00 +25°C° 0 mm 4 m/s 738 mmHg 51%
    15:00 +25°C° 0 mm 4 m/s 738 mmHg 51%
    16:00 +24°C° 0 mm 3 m/s 738 mmHg 56%
    17:00 +22°C° 0 mm 3 m/s 737 mmHg 62%
    18:00 +21°C° 0 mm 3 m/s 737 mmHg 67%
    19:00 +19°C° 0 mm 2 m/s 737 mmHg 70%
    20:00 +17°C° 0 mm 2 m/s 737 mmHg 73%
    21:00 +15°C° 0 mm 2 m/s 737 mmHg 75%
    22:00 +15°C° 0 mm 2 m/s 736 mmHg 76%
    23:00 +14°C° 0 mm 2 m/s 736 mmHg 76%

    3 Juin, Mercredi

    Heure Température Précipitation Vent Pression Humidité
    00:00 +14°C° 0 mm 2 m/s 736 mmHg 76%
    01:00 +13°C° 0 mm 2 m/s 736 mmHg 79%
    02:00 +13°C° 0 mm 2 m/s 735 mmHg 81%
    03:00 +12°C° 0 mm 2 m/s 735 mmHg 83%
    04:00 +13°C° 0 mm 2 m/s 735 mmHg 81%
    05:00 +15°C° 0 mm 2 m/s 735 mmHg 78%
    06:00 +16°C° 0 mm 3 m/s 735 mmHg 75%
    07:00 +18°C° 0 mm 3 m/s 735 mmHg 69%
    08:00 +19°C° 0 mm 3 m/s 735 mmHg 64%
    09:00 +21°C° 0 mm 3 m/s 735 mmHg 58%
    10:00 +22°C° 0 mm 3 m/s 735 mmHg 54%
    11:00 +24°C° 0 mm 3 m/s 735 mmHg 50%
    12:00 +25°C° 0 mm 3 m/s 734 mmHg 46%
    13:00 +26°C° 0 mm 2 m/s 734 mmHg 46%
    14:00 +26°C° 0 mm 2 m/s 734 mmHg 45%
    15:00 +26°C° 0 mm 2 m/s 733 mmHg 44%
    16:00 +25°C° 0 mm 2 m/s 733 mmHg 51%
    17:00 +24°C° 0 mm 2 m/s 733 mmHg 57%
    18:00 +23°C° 0 mm 2 m/s 733 mmHg 63%
    19:00 +20°C° 0 mm 2 m/s 733 mmHg 66%
    20:00 +19°C° 0 mm 2 m/s 733 mmHg 69%
    21:00 +17°C° 0 mm 2 m/s 734 mmHg 72%
    22:00 +17°C° 0 mm 2 m/s 733 mmHg 74%
    23:00 +16°C° 0 mm 2 m/s 733 mmHg 77%

    4 Juin, Jeudi

    Heure Température Précipitation Vent Pression Humidité
    00:00 +15°C° 0 mm 1 m/s 733 mmHg 80%
    01:00 +15°C° 0 mm 1 m/s 733 mmHg 82%
    02:00 +15°C° 0 mm 1 m/s 733 mmHg 83%
    03:00 +14°C° 0 mm 1 m/s 733 mmHg 85%
    04:00 +15°C° 0.2 mm 1 m/s 733 mmHg 85%
    05:00 +16°C° 0.2 mm 1 m/s 733 mmHg 85%
    06:00 +18°C° 0.2 mm 1 m/s 734 mmHg 84%
    07:00 +19°C° 0.4 mm 1 m/s 734 mmHg 85%
    08:00 +18°C° 0.4 mm 2 m/s 734 mmHg 86%
    09:00 +19°C° 0.4 mm 2 m/s 734 mmHg 88%
    10:00 +19°C° 0.8 mm 2 m/s 734 mmHg 87%
    11:00 +20°C° 0.8 mm 3 m/s 734 mmHg 87%
    12:00 +20°C° 0.8 mm 3 m/s 734 mmHg 87%
    13:00 +21°C° 0.2 mm 3 m/s 734 mmHg 81%
    14:00 +23°C° 0.2 mm 2 m/s 734 mmHg 74%
    15:00 +24°C° 0.2 mm 2 m/s 733 mmHg 68%
    16:00 +24°C° 0.7 mm 1 m/s 733 mmHg 73%
    17:00 +23°C° 0.7 mm 1 m/s 733 mmHg 79%
    18:00 +21°C° 0.7 mm 0 m/s 733 mmHg 85%
    19:00 +19°C° 0.2 mm 0 m/s 733 mmHg 86%
    20:00 +18°C° 0.2 mm 0 m/s 733 mmHg 87%
    21:00 +16°C° 0.2 mm 0 m/s 733 mmHg 89%
    22:00 +16°C° 0 mm 0 m/s 733 mmHg 90%
    23:00 +15°C° 0 mm 0 m/s 733 mmHg 91%

    5 Juin, Vendredi

    Heure Température Précipitation Vent Pression Humidité
    00:00 +15°C° 0 mm 0 m/s 733 mmHg 91%
    01:00 +15°C° 0 mm 0 m/s 733 mmHg 92%
    02:00 +14°C° 0 mm 0 m/s 733 mmHg 93%
    03:00 +14°C° 0 mm 0 m/s 732 mmHg 93%
    04:00 +16°C° 0 mm 1 m/s 732 mmHg 93%
    05:00 +18°C° 0 mm 1 m/s 732 mmHg 92%
    06:00 +19°C° 0 mm 1 m/s 733 mmHg 91%
    07:00 +21°C° 0 mm 1 m/s 732 mmHg 84%
    08:00 +21°C° 0 mm 2 m/s 732 mmHg 77%
    09:00 +24°C° 0 mm 2 m/s 732 mmHg 70%
    10:00 +24°C° 0.4 mm 3 m/s 732 mmHg 71%
    11:00 +25°C° 0.4 mm 3 m/s 732 mmHg 72%
    12:00 +25°C° 0.4 mm 4 m/s 732 mmHg 73%
    13:00 +24°C° 0.8 mm 3 m/s 732 mmHg 78%
    14:00 +22°C° 0.8 mm 3 m/s 731 mmHg 83%
    15:00 +21°C° 0.8 mm 2 m/s 731 mmHg 88%
    16:00 +21°C° 0 mm 2 m/s 731 mmHg 87%
    17:00 +23°C° 0 mm 1 m/s 731 mmHg 86%
    18:00 +23°C° 0 mm 1 m/s 731 mmHg 85%
    19:00 +22°C° 0.1 mm 1 m/s 732 mmHg 87%
    20:00 +20°C° 0.1 mm 1 m/s 732 mmHg 89%
    21:00 +19°C° 0.1 mm 1 m/s 733 mmHg 91%
    22:00 +19°C° 0 mm 1 m/s 733 mmHg 92%
    23:00 +19°C° 0 mm 1 m/s 733 mmHg 92%
    Voir plus